Home > Weather > Livonia > Past weeks

Flag for U.S.A. Weather for the Past 2 Weeks in Livonia, Michigan, U.S.A.

Now
20 °F

Mostly cloudy.


Feels Like: 6 °F
Forecast: 15 / 23 °F
Wind: 16 mph from Northwest

Location: Detroit Metropolitan Wayne County Airport

Current Time: Feb 10, 2016 at 5:28:01 PM

Latest Report: Feb 10, 2016 at 4:53 PM


Visibility: 10 mi

Pressure: 29.91 "Hg

Humidity: 55%

Dew point: 6 °F

Location of LivoniaLocation

Historic Weather in Livonia — Graph

°F

Livonia Temperature Yesterday

Maximum temperature yesterday: 33 °F (at 12:53 AM)
Minimum temperature yesterday: 25 °F (at 11:53 PM)
Average temperature yesterday: 29 °F

High & Low Weather Summary for the Past Weeks

 TemperatureHumidityPressure
High55 °F (Feb 3, 11:53 AM)96% (Feb 3, 8:53 AM)30.40 "Hg (Feb 3, 8:53 AM)
Low19 °F (Feb 10, 8:04 AM)43% (Jan 29, 3:53 PM)29.46 "Hg (Feb 3, 5:53 AM)
Average35 °F72%29.90 "Hg
* Reported Jan 26 3:53 PM — Feb 10 3:53 PM, Livonia, Weather by CustomWeather, © 2016

Note: Actual official high and low records may vary slightly from our data, if they occured in-between our weather recording intervals... More about our weather records

Advertising

Livonia Weather History for the Previous 24 Hours

 ConditionsComfort  
Time TempWeatherWind HumidityBarometerVisibility
3:53 PM
Wed, Feb 10
21 °FOvercast.16 mph55%29.88 "Hg10 mi
2:53 PM20 °FLight snow. Mostly cloudy.14 mph65%29.87 "Hg4 mi
1:53 PM21 °FOvercast.14 mph55%29.87 "Hg10 mi
12:53 PM21 °FMore clouds than sun.15 mph50%29.87 "Hg10 mi
11:53 AM21 °FLight snow. Mostly cloudy.16 mph65%29.88 "Hg7 mi
10:53 AM21 °FBroken clouds.17 mph62%29.86 "Hg8 mi
10:04 AM19 °FLight snow. Mostly cloudy.16 mph68%29.82 "Hg3 mi
9:57 AM21 °FLight snow. Mostly cloudy.12 mph74%29.82 "Hg1 mi
8:53 AM20 °FLight snow. Broken clouds.10 mph78%29.83 "Hg3 mi
8:04 AM19 °FLight snow. Cloudy.13 mph79%29.79 "Hg2 mi
7:53 AM20 °FLight snow. Cloudy.13 mph74%29.82 "Hg3 mi
6:53 AM21 °FLight snow. Mostly cloudy.16 mph71%29.80 "Hg8 mi
5:53 AM22 °FLight snow. Mostly cloudy.17 mph72%29.78 "Hg5 mi
5:02 AM23 °FLight snow. Mostly cloudy.13 mph68%29.74 "Hg8 mi
3:53 AM24 °FLight snow. Mostly cloudy.12 mph71%29.75 "Hg6 mi
2:53 AM24 °FLight snow. Mostly cloudy.15 mph75%29.75 "Hg6 mi
1:53 AM24 °FLight snow. Mostly cloudy.12 mph81%29.75 "Hg1 mi
1:00 AM25 °FLight snow. Ice fog.12 mph80%29.72 "Hg1 mi
11:53 PM
Tue, Feb 9
25 °FLight snow. Overcast.15 mph78%29.74 "Hg3 mi
10:56 PM27 °FLight snow. Overcast.8 mph74%29.72 "Hg3 mi
10:04 PM27 °FLight snow. Overcast.13 mph74%29.72 "Hg2 mi
8:53 PM26 °FLight snow. Mostly cloudy.16 mph77%29.73 "Hg4 mi
7:53 PM27 °FLight snow. Overcast.16 mph78%29.72 "Hg4 mi
6:53 PM27 °FLight snow. Overcast.15 mph75%29.71 "Hg6 mi
5:53 PM28 °FLight snow. Overcast.16 mph75%29.69 "Hg2 mi
Weather by CustomWeather, © 2016

See weather overviewHow to use our weather pages